This is the latest recevied weather packets stored in our database for station/object IU1INZ-13. If no packets are shown the sender has not sent any weather packets the latest 10 day(s).
| Time | Temp. | Humidity | Pressure | Rain* | Wind** | Luminosity | Snow |
|---|---|---|---|---|---|---|---|
| 1777531532 | 12.78° C | 81% | 1024.2 hPa | 0 mm | - | - | - |
| 1777530636 | 12.78° C | 82% | 1024.2 hPa | 0 mm | - | - | - |
| 1777529734 | 12.78° C | 81% | 1023.9 hPa | 0 mm | - | - | - |
| 1777528849 | 12.78° C | 81% | 1023.7 hPa | 0 mm | - | - | - |
| 1777527932 | 12.78° C | 79% | 1023.5 hPa | 0 mm | - | - | - |
| 1777527038 | 12.78° C | 80% | 1023.3 hPa | 0 mm | - | - | - |
| 1777526140 | 12.78° C | 84% | 1023.2 hPa | 0 mm | - | - | - |
| 1777524333 | 12.78° C | 83% | 1022.8 hPa | 0 mm | - | - | - |
| 1777523432 | 13.33° C | 79% | 1022.5 hPa | 0 mm | - | - | - |
| 1777522534 | 13.33° C | 77% | 1022.2 hPa | 0 mm | - | - | - |
| 1777521634 | 13.89° C | 76% | 1022 hPa | 0 mm | - | - | - |
| 1777520733 | 13.89° C | 76% | 1021.8 hPa | 0 mm | - | - | - |
| 1777519842 | 13.89° C | 75% | 1022 hPa | 0 mm | - | - | - |
| 1777518961 | 13.89° C | 77% | 1021.9 hPa | 0 mm | - | - | - |
| 1777518043 | 13.89° C | 78% | 1021.7 hPa | 0 mm | - | - | - |
| 1777517131 | 13.89° C | 77% | 1021.6 hPa | 0 mm | - | - | - |
| 1777516233 | 14.44° C | 75% | 1021.5 hPa | 0 mm | - | - | - |
| 1777515333 | 14.44° C | 74% | 1021.3 hPa | 0 mm | - | - | - |
| 1777514443 | 15° C | 75% | 1021.2 hPa | 0 mm | - | - | - |
| 1777513540 | 15° C | 74% | 1021.1 hPa | 0 mm | - | - | - |
| 1777512640 | 15° C | 75% | 1021.1 hPa | 0 mm | - | - | - |
| 1777511734 | 15° C | 77% | 1021.1 hPa | 0 mm | - | - | - |
| 1777509968 | 15° C | 79% | 1021 hPa | 0 mm | - | - | - |
| 1777509034 | 15° C | 79% | 1020.8 hPa | 0 mm | - | - | - |
| 1777507235 | 15° C | 81% | 1020.4 hPa | 0 mm | - | - | - |
* Rain latest hour (hover to see other rain measurements)
** Current wind speed in m/s (hover to see current wind gust speed)